Location: Waning Moon II Observatory
(30.3730°N, 89.7620°W)
Time: 14:50:44
(UTC-06:00)

Meteor 1-21 - Visible Passes

Search period start: 20 December 2014 00:00
Search period end: 30 December 2014 00:00
Orbit: 843 x 890 km, 81.2° (Epoch: 20 December)

Date Brightness Start Highest point End Pass type
(mag) Time Alt. Az. Time Alt. Az. Time Alt. Az.
20 Dec 5.2 04:57:06 10° N 05:02:42 47° E 05:08:14 10° SSE visible
20 Dec 4.2 18:02:11 10° S 18:07:50 87° E 18:13:36 10° N visible
21 Dec 5.2 04:49:52 10° N 04:55:29 48° E 05:01:01 10° SSE visible
21 Dec 4.2 17:54:56 10° S 18:00:36 88° E 18:06:22 10° N visible
22 Dec 5.2 04:42:38 10° N 04:48:15 48° E 04:53:48 10° SSE visible
22 Dec 5.7 06:27:29 10° NW 06:30:59 17° W 06:34:29 10° SW visible
22 Dec 4.3 17:47:42 10° S 17:53:22 89° E 17:59:08 10° N visible
23 Dec 5.1 04:35:55 13° N 04:41:01 49° E 04:46:34 10° SSE visible
23 Dec 5.7 06:20:18 10° NW 06:23:45 16° W 06:27:12 10° SW visible
23 Dec 4.3 17:40:27 10° S 17:46:08 90° W 17:51:55 10° N visible
24 Dec 5.1 04:30:01 21° NNE 04:33:48 49° E 04:39:21 10° SSE visible
24 Dec 5.7 06:13:06 10° NW 06:16:31 16° W 06:19:54 10° WSW visible
24 Dec 4.3 17:33:13 10° S 17:38:54 89° W 17:44:41 10° N visible
25 Dec 5.0 04:24:09 32° NNE 04:26:34 50° E 04:32:07 10° SSE visible
25 Dec 5.7 06:06:35 12° WNW 06:09:16 16° W 06:12:37 10° WSW visible
25 Dec 4.4 17:25:59 10° S 17:31:40 88° W 17:37:27 10° N visible
26 Dec 5.0 04:18:17 45° NE 04:19:20 51° E 04:24:54 10° SSE visible
26 Dec 5.7 06:00:43 15° WNW 06:02:02 16° W 06:05:19 10° WSW visible
27 Dec 5.0 04:12:24 51° E 04:12:24 51° E 04:17:40 10° SSE visible
27 Dec 5.7 05:54:50 15° W 05:54:50 15° W 05:58:01 10° WSW visible
28 Dec 5.3 04:06:29 40° SE 04:06:29 40° SE 04:10:27 10° SSE visible
28 Dec 5.9 05:48:55 14° WSW 05:48:55 14° WSW 05:50:43 10° WSW visible
29 Dec 5.9 04:00:31 28° SE 04:00:31 28° SE 04:03:13 10° SSE visible
29 Dec 6.2 05:42:57 11° WSW 05:42:57 11° WSW 05:43:25 10° WSW visible
